Location: Histon
(52.2500°N, 0.1000°E)
Time: 12:41:40
(UTC+00:00)

Daily predictions for brighter satellites

Satellite Brightness Start Highest point End
(mag) Time Altitude Azimuth Time Altitude Azimuth Time Altitude Azimuth
Cosmos 773 Rocket 4.1 16:17:16 10° NNW 16:22:31 88° ENE 16:27:46 10° SSE
Cosmos 2266 Rocket 4.3 16:18:15 10° N 16:24:05 41° ENE 16:29:47 10° SE
Cosmos 2263 Rocket 2.9 16:20:07 10° NNW 16:25:12 32° NE 16:30:17 10° ESE
MOS 1 Rocket 4.5 16:22:08 10° ESE 16:26:13 25° ENE 16:30:27 10° N
Cosmos 1900 4.3 16:21:10 10° NW 16:26:15 70° NE 16:31:12 10° SE
Cosmos 1461 3.9 16:23:12 10° S 16:26:35 29° ESE 16:30:00 10° ENE
Cosmos 1486 Rocket 4.4 16:21:50 10° S 16:26:45 45° ESE 16:31:45 10° NE
Cosmos 1626 Rocket 3.5 16:23:19 10° N 16:27:41 74° E 16:31:58 10° SSE
CZ-4C R/B 2.9 16:21:30 10° NW 16:28:10 85° NE 16:36:37 10° SE
BREEZE-M DEB (TANK) 3.0 16:28:42 10° WSW 16:31:14 84° SSE 16:38:26 10° E
Lacrosse 4 Rocket 2.5 16:27:40 10° WSW 16:31:25 35° NW 16:35:07 10° NNE
Meteor 1-27 4.4 16:27:48 10° SSW 16:33:37 87° WNW 16:39:24 10° NNE
Intercosmos 24 3.6 16:31:06 10° N 16:34:57 83° E 16:38:30 10° SSE
Cosmos 1943 Rocket 4.2 16:35:24 10° NNW 16:37:23 12° NNW 16:39:20 10° N
Cosmos 1867 3.6 16:36:28 10° NW 16:41:59 85° NE 16:47:26 10° SE
Cosmos 1933 4.4 16:39:50 10° SE 16:42:55 23° E 16:45:58 10° NE
Cosmos 2227 Rocket 2.2 16:38:12 10° NNW 16:43:48 59° NE 16:49:22 10° SE
SMAP 3.3 16:39:24 10° SE 16:43:52 48° ENE 16:48:22 10° N
NOSS 2-2 (E) 2.7 16:41:04 10° SW 16:44:19 72° SE 16:47:05 12° NE
Cosmos 405 Rocket 3.5 16:42:40 10° NNW 16:45:47 45° W 16:48:51 10° S
Cosmos 1544 Rocket 3.5 16:43:39 10° S 16:48:03 73° E 16:52:29 10° NNE
Cosmos 2369 Rocket 3.9 16:43:34 10° W 16:48:12 25° NW 16:52:52 10° NNE
Cosmos 2228 3.4 16:44:03 10° SSW 16:48:17 67° WNW 16:52:31 10° N
Landsat 7 4.1 16:43:59 10° SE 16:48:22 42° ENE 16:52:46 10° N
BREEZE-M DEB (TANK) 3.4 16:47:09 10° WSW 16:49:49 61° S 16:56:55 10° E
ARIANE 5 R/B 2.8 16:45:14 10° SE 16:50:05 47° ENE 16:55:01 10° N
NOSS 3-2 (A) 3.3 16:46:30 10° SW 16:51:40 83° NW 16:57:53 11° NE
SJ-12 4.3 16:49:16 10° SE 16:52:43 34° ENE 16:56:11 10° N
SAR-Lupe-4 4.1 16:49:42 10° SE 16:52:57 35° ENE 16:56:14 10° N
NOSS 3-2 (C) 3.5 16:49:15 10° SSW 16:54:10 52° SE 16:59:37 12° NE
Cosmos 1782 2.5 16:51:59 10° S 16:55:35 88° E 16:59:12 10° N
Cosmos 2360 4.3 16:50:10 10° SSW 16:55:52 73° ESE 17:01:36 10° NE
Cosmos 1697 Rocket 3.2 16:53:22 10° S 16:58:33 40° ESE 17:03:26 12° NE
ATLAS CENTAUR R/B 4.1 16:58:01 10° WNW 17:00:09 17° WSW 17:02:15 10° SSW
NOSS 2-2 (C) 3.8 16:58:19 10° WSW 17:01:11 35° NW 17:03:36 13° NNE
Cosmos 2278 Rocket 4.3 16:59:57 10° NNW 17:01:53 12° N 17:03:49 10° NNE
SL-16 R/B 2.5 16:57:33 10° NNE 17:03:51 84° ESE 17:10:03 10° SSW
SAR-Lupe-1 4.4 17:01:17 10° SE 17:04:42 41° ENE 17:08:07 10° N
Cosmos 1602 Rocket 3.6 17:02:31 10° NNW 17:06:56 83° W 17:11:16 10° S
Cosmos 2151 3.0 17:03:14 10° NNW 17:07:25 84° W 17:11:35 10° S
Meteor 1-28 Rocket 2.8 17:04:59 10° NNE 17:08:21 81° ESE 17:11:42 10° SSW
CBERS-1 4.5 17:04:11 10° S 17:09:16 66° WSW 17:14:23 10° NNW
Okean 1-7 Rocket 3.5 17:05:27 10° N 17:09:52 75° ENE 17:14:13 10° SSE
SPOT 1/Viking Rocket 4.0 17:05:50 10° SE 17:10:34 37° ENE 17:15:19 10° N
IGS 5A 3.9 17:07:18 10° S 17:11:14 63° W 17:15:12 10° NNW
Cosmos 1656 3.9 17:06:42 10° SW 17:12:20 71° WNW 17:18:03 10° NNE
YAOGAN 1 3.5 17:11:00 10° ESE 17:14:25 24° ENE 17:17:52 10° N
Cosmos 1538 Rocket 4.1 17:16:31 10° NNW 17:21:44 57° ENE 17:26:58 10° SE
Gbstr 26 Del rocket 3.6 17:22:25 10° SW 17:26:12 37° SSE 17:28:04 22° E
IRS-P3 4.1 17:22:04 10° SSE 17:27:19 67° ENE 17:32:37 10° NNW
CENTAUR R/B 3.5 17:24:32 10° W 17:30:31 43° NNW 17:36:16 17° NE
Cosmos 44 Rocket 4.3 17:26:13 10° NW 17:30:43 30° NNE 17:32:39 24° ENE
Cosmos 1953 Rocket 3.6 17:26:49 10° N 17:31:12 56° ENE 17:35:34 10° SSE
Cosmos 2082 3.9 17:26:07 10° NNW 17:31:40 48° NE 17:37:11 10° SE
Cosmos 1503 Rocket 4.0 17:27:33 10° SSW 17:32:48 85° WNW 17:37:34 13° NNE
CZ-2D R/B 2.7 17:30:01 10° SSE 17:33:08 86° WSW 17:36:19 10° NNW
Lacrosse 5 rocket 1.8 17:30:15 10° WNW 17:33:46 38° N 17:35:04 28° NE
Thor Agena Rocket 4.3 17:29:40 10° S 17:34:45 56° WSW 17:39:50 10° NNW
NOSS 2-3 (C) 4.0 17:32:12 10° S 17:35:16 30° ESE 17:35:53 28° ESE
Cosmos 2297 Rocket 4.1 17:31:00 10° NW 17:36:02 33° WSW 17:41:01 10° S
CZ-2D R/B 3.8 17:32:11 10° SE 17:36:06 41° ENE 17:39:59 10° N
Cosmos 1825 Rocket 3.7 17:35:28 10° NNW 17:39:49 77° W 17:44:07 10° S
Cosmos 1655 Rocket 3.9 17:34:47 10° N 17:41:04 77° E 17:47:16 10° SSE
Cosmos 1354 Rocket 3.9 17:37:51 10° SSW 17:43:08 85° ESE 17:47:18 17° NNE
Cosmos 2098 Rocket 4.5 17:43:00 10° SW 17:47:13 42° WNW 17:52:07 10° N
Cosmos 1777 Rocket 4.5 17:42:21 10° SW 17:47:32 60° WNW 17:52:15 13° NNE
GEOS 3 Rocket 3.7 17:44:31 24° NE 17:47:50 74° SE 17:53:12 10° SW
SJ-6F 4.3 17:43:59 10° SSE 17:47:58 87° WSW 17:52:03 10° NNW
PSLV R/B 3.8 17:46:34 28° ESE 17:47:59 39° ENE 17:51:48 10° N
Resurs 01 Rocket 3.6 17:50:49 13° NNE 17:50:49 13° NNE 17:51:32 10° N
Spot 4 Rocket 4.0 17:45:15 10° SE 17:50:13 55° ENE 17:55:14 10° N
SL-19 R/B 4.4 17:46:05 10° SE 17:51:22 52° ENE 17:56:58 10° N
Cosmos 1076 Rocket 3.5 17:47:56 10° NNW 17:52:16 86° W 17:56:35 10° S
Cosmos 1898 Rocket 4.0 17:47:54 10° SSE 17:52:32 35° ESE 17:53:24 33° E
COSMO-SKYMED 1 3.6 17:54:11 26° SE 17:54:11 26° SE 17:56:38 10° SSE
USA 238 DEB 3.8 17:49:17 10° SSW 17:55:08 49° ESE 17:58:03 30° ENE
USA 238 3.8 17:49:24 10° SSW 17:55:16 49° ESE 17:58:09 30° ENE
Meteor 1-26 Rocket 4.4 17:52:02 10° SSE 17:57:06 43° E 17:59:14 29° NE
Cosmos 2219 3.1 17:52:21 10° NNW 17:58:08 80° ENE 18:03:54 10° SE
NOSS 2-3 (E) 3.1 17:54:56 10° SSW 17:58:32 62° SE 17:59:07 53° E
NOSS 2-3 (D) 3.2 17:54:55 10° SSW 17:58:32 58° SE 17:59:03 51° E
Cosmos 372 Rocket 4.2 17:55:06 10° S 18:00:01 48° ESE 18:01:27 38° ENE
USA 215 3.4 17:56:39 29° ENE 18:00:05 60° N 18:06:31 10° WNW
Cosmos 1844 Rocket 3.2 17:56:20 10° NNW 18:01:35 36° NE 18:02:19 35° ENE
Cosmos 1980 Rocket 2.3 17:56:51 10° S 18:02:22 56° ESE 18:04:34 34° NE
Cosmos 1461 3.5 17:59:24 10° WSW 18:03:11 46° NW 18:04:33 32° NNE
Cosmos 923 Rocket 4.0 17:58:17 10° NNW 18:03:27 57° ENE 18:06:27 24° SE
MOS 1 Rocket 4.0 17:58:52 10° S 18:03:48 63° W 18:09:02 10° NNW
UNK 4.5 18:00:11 10° N 18:04:39 52° WNW 18:09:03 10° SW
Cosmos 2058 Rocket 3.1 18:03:11 10° S 18:07:35 59° E 18:08:38 45° NE
Cosmos 2263 Rocket 2.6 18:03:54 10° NW 18:09:31 64° WSW 18:15:08 10° SSE
Cosmos 1937 Rocket 4.1 18:05:00 10° S 18:09:12 35° ESE 18:09:12 35° ESE
Lacrosse 4 Rocket 3.8 18:08:52 10° NW 18:10:23 12° NNW 18:11:37 11° N
Cosmos 990 Rocket 4.3 18:10:26 10° SW 18:15:32 66° WNW 18:18:42 23° NNE
Meteor 2-11 Rocket 4.4 18:10:14 10° N 18:16:20 57° ENE 18:22:22 10° SSE
Cosmos 2369 4.0 18:12:22 10° S 18:17:45 44° ESE 18:18:03 43° E
MINOTAUR IV R/B 4.4 18:14:09 10° NNW 18:18:35 71° ENE 18:19:00 65° E
Cosmos 1943 Rocket 4.2 18:21:25 10° N 18:23:19 12° N 18:23:19 12° N
Cosmos 494 Rocket 4.4 18:18:50 10° NNW 18:23:16 44° NE 18:23:16 44° NE
Aureole 1 Rocket 3.4 18:19:18 10° SSW 18:23:58 80° ESE 18:26:00 40° NNE
Nadezhda 2 Rocket 4.3 18:21:11 10° N 18:27:22 84° E 18:33:28 10° S
Cosmos 2227 Rocket 4.1 18:22:41 10° NW 18:27:32 30° WSW 18:32:22 10° SSW
Meteor 2-10 4.5 18:22:53 10° NNW 18:28:13 65° W 18:33:42 10° S
Resurs 1-3 3.6 18:24:34 10° S 18:28:53 78° WSW 18:33:12 10° NNW
ARIANE 5 R/B 4.4 18:24:49 10° SSW 18:29:18 31° W 18:33:53 10° NNW
Cosmos 2369 Rocket 4.4 18:32:08 10° NW 18:34:24 12° N 18:36:09 11° N
Cosmos 1680 Rocket 3.3 18:30:17 10° NNW 18:35:32 74° ENE 18:36:00 69° ESE
Cosmos 1553 Rocket 3.8 18:30:31 10° S 18:36:40 74° E 18:41:14 20° NNE
NOAA 6 3.9 18:32:46 10° SSE 18:37:53 90° WSW 18:43:01 10° NNW
Cosmos-2242 3.1 18:38:05 10° SSW 18:42:13 70° W 18:42:13 70° W
Meteor 1-14 Rocket 4.1 18:36:37 10° N 18:42:11 65° ENE 18:42:11 65° ENE
Cosmos 1697 Rocket 3.5 18:37:05 10° WSW 18:42:27 46° NW 18:45:09 27° N
NOSS 3-2 (A) 4.5 18:38:08 10° W 18:43:20 35° NNW 18:45:13 30° NNE
NOSS 3-2 (C) 4.0 18:39:52 10° WSW 18:45:06 48° NNW 18:47:01 36° NNE
SL-16 R/B 4.4 18:41:52 10° N 18:46:46 25° NW 18:51:39 10° WSW
Cosmos 2278 Rocket 4.3 18:45:27 10° NNW 18:47:15 14° N 18:47:15 14° N
YAOGAN 1 3.4 18:45:56 10° S 18:50:02 47° W 18:54:11 10° NNW
Cosmos 1745 Rocket 3.8 18:44:17 10° N 18:50:30 72° ENE 18:51:04 67° ESE
SKYMED 2 4.3 18:54:15 46° NW 18:54:51 50° WNW 18:59:02 10° SW
Cosmos 1844 4.1 19:03:49 10° NNW 19:08:06 53° NNW 19:08:06 53° NNW
Lacrosse 5 rocket 3.7 19:07:38 10° WNW 19:08:39 17° NW 19:08:39 17° NW
Cosmos 44 Rocket 4.1 19:07:34 10° NW 19:11:16 49° NW 19:11:16 49° NW
USA 281 4.2 19:18:54 34° N 19:18:54 34° N 19:22:52 10° NNW
COSMOS 2455 3.9 19:14:03 10° SSW 19:17:20 33° S 19:17:20 33° S
CENTAUR R/B 3.8 19:16:30 10° WNW 19:22:58 36° N 19:23:22 36° NNE
Resurs 01 Rocket 4.4 19:28:13 11° NNW 19:28:13 11° NNW 19:28:26 10° NNW
SL-16 R/B 4.4 19:24:00 10° SSW 19:24:43 14° S 19:24:43 14° S
USA 215 3.5 19:44:00 64° NW 19:44:00 64° NW 19:49:29 10° WNW
Cosmos 1844 Rocket 3.8 19:40:11 10° NW 19:44:00 40° WNW 19:44:00 40° WNW
USA 238 DEB 4.1 19:39:51 10° WSW 19:45:30 54° NW 19:45:30 54° NW
USA 238 4.1 19:39:57 10° WSW 19:45:36 55° NW 19:45:36 55° NW
Cosmos 1980 Rocket 3.5 19:41:27 10° WSW 19:46:21 35° NW 19:46:21 35° NW
